| time (UTC) | temp F | wind direction | speed MPH | gust MPH | rain 1hr in | rain 24hr in | rain mn in | humidity % | barometer mb |
| 20260506073449 | 46 | 148 | 3.0 | 6.0 | 0.00 | 0.00 | 0.00 | 63 | 1008.6 |
| 20260506072946 | 46 | 125 | 0.0 | 10.0 | 0.00 | 0.00 | 0.00 | 63 | 1008.4 |
| 20260506072443 | 45 | 199 | 5.0 | 6.0 | 0.00 | 0.00 | 0.00 | 64 | 1008.7 |
| 20260506071941 | 45 | 125 | 3.0 | 9.0 | 0.00 | 0.00 | 0.00 | 64 | 1008.6 |
| 20260506071439 | 45 | 167 | 3.0 | 8.0 | 0.00 | 0.00 | 0.00 | 64 | 1008.3 |
| 20260506070936 | 45 | 154 | 3.0 | 9.0 | 0.00 | 0.00 | 0.00 | 65 | 1008.4 |
| 20260506070433 | 45 | 128 | 2.0 | 9.0 | 0.00 | 0.00 | 0.00 | 64 | 1008.2 |
| 20260506062410 | 46 | 93 | 3.0 | 10.0 | 0.00 | 0.00 | 0.00 | 64 | 1007.9 |
| 20260506061906 | 46 | 146 | 5.0 | 13.0 | 0.00 | 0.00 | 0.00 | 63 | 1008.0 |
| 20260506061403 | 46 | 33 | 6.0 | 7.0 | 0.00 | 0.00 | 0.00 | 63 | 1007.8 |
| 20260506060901 | 46 | 127 | 2.0 | 10.0 | 0.00 | 0.00 | 0.00 | 63 | 1007.7 |
| 20260506060358 | 46 | 135 | 3.0 | 10.0 | 0.00 | 0.00 | 0.00 | 63 | 1007.6 |
| 20260506051330 | 47 | 106 | 0.0 | 8.0 | 0.00 | 0.00 | 0.00 | 63 | 1007.4 |
| 20260506050828 | 48 | 15 | 2.0 | 8.0 | 0.00 | 0.00 | 0.00 | 63 | 1007.3 |
| 20260506050325 | 48 | 132 | 6.0 | 10.0 | 0.00 | 0.00 | 0.00 | 62 | 1007.2 |
| 20260506044815 | 48 | 6 | 0.0 | 6.0 | 0.00 | 0.00 | 0.00 | 62 | 1007.2 |
| 20260506044314 | 48 | 75 | 2.0 | 9.0 | 0.00 | 0.00 | 0.00 | 61 | 1007.2 |
| 20260506043810 | 48 | 122 | 4.0 | 10.0 | 0.00 | 0.00 | 0.00 | 61 | 1006.9 |
| 20260506043308 | 48 | 86 | 5.0 | 13.0 | 0.00 | 0.00 | 0.00 | 61 | 1007.1 |
| 20260506042806 | 48 | 79 | 7.0 | 7.0 | 0.00 | 0.00 | 0.00 | 62 | 1006.8 |
| 20260506042305 | 48 | 72 | 5.0 | 9.0 | 0.00 | 0.00 | 0.00 | 62 | 1007.0 |
| 20260506041803 | 49 | 165 | 6.0 | 10.0 | 0.00 | 0.00 | 0.00 | 61 | 1006.8 |
| 20260506041259 | 49 | 158 | 6.0 | 6.0 | 0.00 | 0.00 | 0.00 | 61 | 1006.9 |
| 20260506040757 | 49 | 81 | 0.0 | 13.0 | 0.00 | 0.00 | 0.00 | 61 | 1006.7 |
| 20260506040254 | 49 | 144 | 3.0 | 8.0 | 0.00 | 0.00 | 0.00 | 61 | 1006.9 |
| 20260506035750 | 50 | 14 | 4.0 | 16.0 | 0.00 | 0.00 | 0.00 | 61 | 1006.6 |
| 20260506035247 | 50 | 74 | 3.0 | 7.0 | 0.00 | 0.00 | 0.00 | 61 | 1006.6 |
| 20260506034744 | 50 | 122 | 4.0 | 10.0 | 0.00 | 0.00 | 0.00 | 59 | 1006.6 |
| 20260506034242 | 50 | 127 | 3.0 | 10.0 | 0.00 | 0.00 | 0.00 | 57 | 1006.6 |
| 20260506033738 | 51 | 283 | 1.0 | 9.0 | 0.00 | 0.00 | 0.00 | 58 | 1006.6 |
| 20260506033236 | 51 | 151 | 5.0 | 11.0 | 0.00 | 0.00 | 0.00 | 57 | 1006.5 |
| 20260506032732 | 51 | 21 | 5.0 | 8.0 | 0.00 | 0.00 | 0.00 | 58 | 1006.4 |
| 20260506032229 | 51 | 109 | 1.0 | 10.0 | 0.00 | 0.00 | 0.00 | 59 | 1006.4 |
| 20260506031726 | 50 | 113 | 3.0 | 11.0 | 0.00 | 0.00 | 0.00 | 58 | 1006.6 |
| 20260506031223 | 51 | 95 | 2.0 | 11.0 | 0.00 | 0.00 | 0.00 | 58 | 1006.3 |
| 20260506030722 | 51 | 0 | 2.0 | 7.0 | 0.00 | 0.00 | 0.00 | 57 | 1006.2 |
| 20260506030219 | 51 | 98 | 3.0 | 8.0 | 0.00 | 0.00 | 0.00 | 57 | 1006.2 |
| 20260506025715 | 51 | 137 | 5.0 | 15.0 | 0.00 | 0.00 | 0.00 | 57 | 1006.2 |
| 20260506025212 | 51 | 18 | 2.0 | 8.0 | 0.00 | 0.00 | 0.00 | 58 | 1006.2 |
| 20260506024709 | 51 | 139 | 7.0 | 8.0 | 0.00 | 0.00 | 0.00 | 57 | 1006.1 |
| 20260506024205 | 52 | 40 | 3.0 | 7.0 | 0.00 | 0.00 | 0.00 | 57 | 1005.9 |
| 20260506023702 | 51 | 130 | 3.0 | 10.0 | 0.00 | 0.00 | 0.00 | 57 | 1006.1 |
| 20260506023159 | 51 | 140 | 6.0 | 12.0 | 0.00 | 0.00 | 0.00 | 56 | 1006.0 |
| 20260506022656 | 51 | 156 | 2.0 | 15.0 | 0.00 | 0.00 | 0.00 | 57 | 1006.2 |
| 20260506022153 | 52 | 114 | 3.0 | 11.0 | 0.00 | 0.00 | 0.00 | 56 | 1005.9 |
| 20260506021651 | 51 | 328 | 4.0 | 12.0 | 0.00 | 0.00 | 0.00 | 56 | 1006.1 |
| 20260506021148 | 51 | 125 | 4.0 | 10.0 | 0.00 | 0.00 | 0.00 | 56 | 1006.1 |
| 20260506020645 | 52 | 65 | 2.0 | 7.0 | 0.00 | 0.00 | 0.00 | 57 | 1006.0 |
| 20260506020143 | 52 | 115 | 4.0 | 9.0 | 0.00 | 0.00 | 0.00 | 56 | 1006.0 |
| 20260506015640 | 52 | 160 | 9.0 | 10.0 | 0.00 | 0.00 | 0.00 | 56 | 1005.9 |
| 20260506015137 | 52 | 141 | 5.0 | 11.0 | 0.00 | 0.00 | 0.00 | 55 | 1005.9 |
| 20260506014635 | 52 | 140 | 8.0 | 8.0 | 0.00 | 0.00 | 0.00 | 55 | 1006.0 |
| 20260506014130 | 52 | 70 | 7.0 | 18.0 | 0.00 | 0.00 | 0.00 | 55 | 1005.9 |
| 20260506013629 | 53 | 83 | 0.0 | 10.0 | 0.00 | 0.00 | 0.00 | 55 | 1006.0 |
| 20260506013125 | 53 | 160 | 4.0 | 15.0 | 0.00 | 0.00 | 0.00 | 54 | 1005.9 |
| 20260506012621 | 53 | 154 | 5.0 | 17.0 | 0.00 | 0.00 | 0.00 | 55 | 1006.0 |
| 20260506012118 | 53 | 355 | 1.0 | 9.0 | 0.00 | 0.00 | 0.00 | 56 | 1006.0 |
| 20260506011616 | 52 | 112 | 4.0 | 13.0 | 0.00 | 0.00 | 0.00 | 55 | 1006.1 |
| 20260506011112 | 53 | 306 | 4.0 | 15.0 | 0.00 | 0.00 | 0.00 | 55 | 1006.1 |
| 20260506010606 | 54 | 176 | 6.0 | 10.0 | 0.00 | 0.00 | 0.00 | 54 | 1006.1 |
| 20260506005559 | 54 | 37 | 0.0 | 18.0 | 0.00 | 0.00 | 0.00 | 54 | 1006.1 |
| 20260506005055 | 55 | 246 | 2.0 | 15.0 | 0.00 | 0.00 | 0.00 | 53 | 1005.9 |
| 20260506004552 | 54 | 144 | 4.0 | 14.0 | 0.00 | 0.00 | 0.00 | 52 | 1006.0 |
| 20260506004049 | 54 | 95 | 0.0 | 10.0 | 0.00 | 0.00 | 0.00 | 54 | 1005.9 |
| 20260506003545 | 53 | 27 | 3.0 | 12.0 | 0.00 | 0.00 | 0.00 | 55 | 1006.1 |
| 20260506003042 | 53 | 199 | 2.0 | 12.0 | 0.00 | 0.00 | 0.00 | 55 | 1005.9 |
| 20260506002537 | 54 | 142 | 7.0 | 10.0 | 0.00 | 0.00 | 0.00 | 53 | 1006.0 |
| 20260506002034 | 54 | 201 | 2.0 | 6.0 | 0.00 | 0.00 | 0.00 | 52 | 1005.7 |
| 20260506001530 | 54 | 274 | 6.0 | 10.0 | 0.00 | 0.00 | 0.00 | 53 | 1006.0 |
| 20260506001027 | 54 | 140 | 5.0 | 14.0 | 0.00 | 0.00 | 0.00 | 52 | 1005.9 |
| 20260506000525 | 54 | 132 | 5.0 | 20.0 | 0.00 | 0.00 | 0.00 | 52 | 1006.0 |
| 20260506000022 | 54 | 103 | 3.0 | 11.0 | 0.00 | 0.00 | 0.00 | 52 | 1005.8 |
| 20260505235520 | 54 | 0 | 1.0 | 13.0 | 0.00 | 0.00 | 0.00 | 54 | 1005.7 |
| 20260505235016 | 53 | 142 | 4.0 | 18.0 | 0.00 | 0.00 | 0.00 | 55 | 1005.9 |
| 20260505234514 | 53 | 143 | 5.0 | 7.0 | 0.00 | 0.00 | 0.00 | 57 | 1005.7 |
| 20260505234010 | 53 | 112 | 4.0 | 15.0 | 0.00 | 0.00 | 0.00 | 55 | 1005.7 |
| 20260505233508 | 53 | 90 | 1.0 | 16.0 | 0.00 | 0.00 | 0.00 | 55 | 1005.8 |
| 20260505233005 | 54 | 43 | 5.0 | 17.0 | 0.00 | 0.00 | 0.00 | 54 | 1005.6 |
| 20260505232503 | 53 | 139 | 4.0 | 12.0 | 0.00 | 0.00 | 0.00 | 56 | 1005.6 |
| 20260505232000 | 53 | 144 | 4.0 | 16.0 | 0.00 | 0.00 | 0.00 | 55 | 1005.8 |
| 20260505231457 | 53 | 138 | 11.0 | 18.0 | 0.00 | 0.00 | 0.00 | 54 | 1005.6 |
| 20260505230955 | 53 | 325 | 0.0 | 20.0 | 0.00 | 0.00 | 0.00 | 54 | 1005.6 |
| 20260505230453 | 54 | 172 | 3.0 | 14.0 | 0.00 | 0.00 | 0.00 | 53 | 1005.6 |
| 20260505225949 | 54 | 124 | 4.0 | 20.0 | 0.00 | 0.00 | 0.00 | 54 | 1005.6 |
| 20260505225446 | 53 | 195 | 6.0 | 11.0 | 0.00 | 0.00 | 0.00 | 54 | 1005.3 |
| 20260505224942 | 52 | 131 | 5.0 | 12.0 | 0.00 | 0.00 | 0.00 | 55 | 1005.6 |
| 20260505224439 | 52 | 127 | 7.0 | 14.0 | 0.00 | 0.00 | 0.00 | 54 | 1005.5 |
| 20260505223937 | 52 | 150 | 14.0 | 14.0 | 0.00 | 0.00 | 0.00 | 55 | 1005.9 |
| 20260505223433 | 52 | 204 | 0.0 | 18.0 | 0.00 | 0.00 | 0.00 | 55 | 1005.6 |
| 20260505222930 | 52 | 292 | 3.0 | 11.0 | 0.00 | 0.00 | 0.00 | 56 | 1005.5 |
| 20260505222426 | 52 | 137 | 6.0 | 22.0 | 0.00 | 0.00 | 0.00 | 56 | 1005.4 |
| 20260505221922 | 52 | 94 | 7.0 | 16.0 | 0.00 | 0.00 | 0.00 | 54 | 1005.4 |
| 20260505221419 | 53 | 158 | 7.0 | 10.0 | 0.00 | 0.00 | 0.00 | 55 | 1005.2 |
| 20260505220916 | 53 | 150 | 14.0 | 17.0 | 0.00 | 0.00 | 0.00 | 54 | 1005.5 |
| 20260505220413 | 53 | 129 | 4.0 | 14.0 | 0.00 | 0.00 | 0.00 | 53 | 1005.6 |
| 20260505215911 | 53 | 141 | 11.0 | 17.0 | 0.00 | 0.00 | 0.00 | 53 | 1005.4 |
| 20260505215409 | 53 | 141 | 11.0 | 17.0 | 0.00 | 0.00 | 0.00 | 53 | 1005.3 |
| 20260505214907 | 53 | 151 | 11.0 | 15.0 | 0.00 | 0.00 | 0.00 | 53 | 1005.3 |
| 20260505214404 | 52 | 115 | 11.0 | 14.0 | 0.00 | 0.00 | 0.00 | 53 | 1005.3 |
| 20260505213901 | 53 | 208 | 4.0 | 17.0 | 0.00 | 0.00 | 0.00 | 53 | 1005.1 |
| 20260505213359 | 53 | 179 | 6.0 | 17.0 | 0.00 | 0.00 | 0.00 | 53 | 1005.2 |
| 20260505212855 | 52 | 151 | 8.0 | 20.0 | 0.00 | 0.00 | 0.00 | 53 | 1005.0 |
| 20260505212352 | 52 | 167 | 8.0 | 21.0 | 0.00 | 0.00 | 0.00 | 53 | 1005.0 |
| 20260505211848 | 53 | 138 | 7.0 | 12.0 | 0.00 | 0.00 | 0.00 | 54 | 1005.0 |
| 20260505211346 | 52 | 153 | 7.0 | 12.0 | 0.00 | 0.00 | 0.00 | 55 | 1005.0 |
| 20260505210842 | 51 | 95 | 5.0 | 19.0 | 0.00 | 0.00 | 0.00 | 55 | 1005.0 |
| 20260505210339 | 51 | 107 | 5.0 | 14.0 | 0.00 | 0.00 | 0.00 | 55 | 1005.0 |
| 20260505205836 | 51 | 154 | 5.0 | 18.0 | 0.00 | 0.00 | 0.00 | 56 | 1005.1 |
| 20260505205334 | 50 | 0 | 3.0 | 20.0 | 0.00 | 0.00 | 0.00 | 57 | 1005.1 |
| 20260505204830 | 50 | 192 | 3.0 | 15.0 | 0.00 | 0.00 | 0.00 | 58 | 1005.0 |
| 20260505204329 | 50 | 168 | 8.0 | 15.0 | 0.00 | 0.00 | 0.00 | 57 | 1004.9 |
| 20260505203826 | 51 | 186 | 3.0 | 18.0 | 0.00 | 0.00 | 0.00 | 56 | 1005.0 |
| 20260505203322 | 51 | 138 | 7.0 | 16.0 | 0.00 | 0.00 | 0.00 | 55 | 1004.9 |
| 20260505202818 | 50 | 143 | 5.0 | 18.0 | 0.00 | 0.00 | 0.00 | 55 | 1004.8 |
| 20260505202314 | 51 | 124 | 5.0 | 15.0 | 0.00 | 0.00 | 0.00 | 55 | 1004.8 |
| 20260505201811 | 51 | 203 | 5.0 | 9.0 | 0.00 | 0.00 | 0.00 | 54 | 1004.8 |
| 20260505201309 | 51 | 123 | 4.0 | 11.0 | 0.00 | 0.00 | 0.00 | 53 | 1005.0 |
| 20260505200807 | 51 | 159 | 4.0 | 15.0 | 0.00 | 0.00 | 0.00 | 53 | 1004.9 |
| 20260505200304 | 50 | 142 | 7.0 | 17.0 | 0.00 | 0.00 | 0.00 | 54 | 1004.9 |
| 20260505195759 | 51 | 165 | 4.0 | 15.0 | 0.00 | 0.00 | 0.00 | 54 | 1004.7 |
| 20260505195257 | 50 | 129 | 8.0 | 15.0 | 0.00 | 0.00 | 0.00 | 53 | 1004.7 |
| 20260505194754 | 51 | 155 | 5.0 | 10.0 | 0.00 | 0.00 | 0.00 | 53 | 1004.6 |
| 20260505194250 | 51 | 98 | 4.0 | 15.0 | 0.00 | 0.00 | 0.00 | 53 | 1004.7 |
| 20260505193746 | 51 | 156 | 8.0 | 15.0 | 0.00 | 0.00 | 0.00 | 52 | 1004.9 |
| 20260505193244 | 51 | 119 | 5.0 | 14.0 | 0.00 | 0.00 | 0.00 | 51 | 1004.9 |
| 20260505192742 | 51 | 181 | 5.0 | 20.0 | 0.00 | 0.00 | 0.00 | 51 | 1004.6 |
| 20260505192239 | 51 | 71 | 5.0 | 17.0 | 0.00 | 0.00 | 0.00 | 52 | 1004.7 |
| 20260505191737 | 51 | 157 | 13.0 | 13.0 | 0.00 | 0.00 | 0.00 | 52 | 1004.8 |
| 20260505191236 | 50 | 146 | 3.0 | 13.0 | 0.00 | 0.00 | 0.00 | 53 | 1004.7 |
| 20260505190731 | 50 | 93 | 4.0 | 9.0 | 0.00 | 0.00 | 0.00 | 53 | 1004.7 |
| 20260505190231 | 50 | 240 | 3.0 | 19.0 | 0.00 | 0.00 | 0.00 | 54 | 1004.7 |
| 20260505185728 | 49 | 160 | 10.0 | 15.0 | 0.00 | 0.00 | 0.00 | 54 | 1004.7 |
| 20260505185225 | 49 | 183 | 3.0 | 11.0 | 0.00 | 0.00 | 0.00 | 54 | 1004.7 |
| 20260505184720 | 49 | 141 | 5.0 | 15.0 | 0.00 | 0.00 | 0.00 | 55 | 1004.4 |
| 20260505184218 | 50 | 114 | 1.0 | 11.0 | 0.00 | 0.00 | 0.00 | 55 | 1004.7 |
| 20260505183715 | 49 | 146 | 4.0 | 11.0 | 0.00 | 0.00 | 0.00 | 54 | 1004.4 |
| 20260505183213 | 49 | 165 | 6.0 | 13.0 | 0.00 | 0.00 | 0.00 | 54 | 1004.5 |
| 20260505182708 | 49 | 87 | 3.0 | 11.0 | 0.00 | 0.00 | 0.00 | 54 | 1004.6 |
| 20260505182206 | 49 | 173 | 6.0 | 14.0 | 0.00 | 0.00 | 0.00 | 53 | 1004.2 |
| 20260505181702 | 49 | 169 | 6.0 | 17.0 | 0.00 | 0.00 | 0.00 | 54 | 1004.3 |
| 20260505181200 | 50 | 154 | 6.0 | 14.0 | 0.00 | 0.00 | 0.00 | 54 | 1004.2 |
| 20260505180655 | 50 | 169 | 4.0 | 17.0 | 0.00 | 0.00 | 0.00 | 53 | 1004.2 |
| 20260505180153 | 49 | 157 | 6.0 | 9.0 | 0.00 | 0.00 | 0.00 | 55 | 1004.1 |
| 20260505175649 | 49 | 74 | 2.0 | 10.0 | 0.00 | 0.00 | 0.00 | 55 | 1004.4 |
| 20260505175145 | 49 | 177 | 4.0 | 16.0 | 0.00 | 0.00 | 0.00 | 54 | 1004.0 |
| 20260505174642 | 49 | 112 | 4.0 | 19.0 | 0.00 | 0.00 | 0.00 | 55 | 1004.0 |
| 20260505174138 | 49 | 158 | 3.0 | 12.0 | 0.00 | 0.00 | 0.00 | 56 | 1003.9 |
| 20260505173635 | 49 | 200 | 3.0 | 13.0 | 0.00 | 0.00 | 0.00 | 56 | 1003.9 |
| 20260505173132 | 49 | 158 | 8.0 | 13.0 | 0.00 | 0.00 | 0.00 | 56 | 1004.0 |
| 20260505172629 | 48 | 211 | 7.0 | 10.0 | 0.00 | 0.00 | 0.00 | 57 | 1004.0 |
| 20260505172126 | 48 | 146 | 2.0 | 9.0 | 0.00 | 0.00 | 0.00 | 58 | 1003.8 |
| 20260505171621 | 48 | 174 | 5.0 | 11.0 | 0.00 | 0.00 | 0.00 | 58 | 1003.9 |
| 20260505171118 | 48 | 172 | 5.0 | 16.0 | 0.00 | 0.00 | 0.00 | 58 | 1003.8 |
| 20260505170615 | 49 | 140 | 3.0 | 8.0 | 0.00 | 0.00 | 0.00 | 58 | 1003.5 |
| 20260505170111 | 49 | 176 | 6.0 | 17.0 | 0.00 | 0.00 | 0.00 | 56 | 1003.7 |
| 20260505165606 | 49 | 179 | 6.0 | 15.0 | 0.00 | 0.00 | 0.00 | 57 | 1003.8 |
| 20260505165102 | 49 | 141 | 6.0 | 10.0 | 0.00 | 0.00 | 0.00 | 56 | 1003.6 |
| 20260505164558 | 48 | 156 | 7.0 | 9.0 | 0.00 | 0.00 | 0.00 | 57 | 1003.5 |
| 20260505164056 | 48 | 154 | 3.0 | 9.0 | 0.00 | 0.00 | 0.00 | 58 | 1003.6 |
| 20260505163555 | 48 | 48 | 4.0 | 11.0 | 0.00 | 0.00 | 0.00 | 58 | 1003.7 |
| 20260505163051 | 48 | 155 | 5.0 | 16.0 | 0.00 | 0.00 | 0.00 | 58 | 1003.6 |
| 20260505162549 | 47 | 192 | 6.0 | 12.0 | 0.00 | 0.00 | 0.00 | 60 | 1003.6 |
| 20260505162047 | 47 | 90 | 3.0 | 9.0 | 0.00 | 0.00 | 0.00 | 59 | 1003.4 |
| 20260505161543 | 47 | 141 | 5.0 | 14.0 | 0.00 | 0.00 | 0.00 | 59 | 1003.6 |
| 20260505161041 | 47 | 153 | 10.0 | 11.0 | 0.00 | 0.00 | 0.00 | 59 | 1003.6 |
| 20260505160539 | 47 | 144 | 9.0 | 14.0 | 0.00 | 0.00 | 0.00 | 60 | 1003.3 |
| 20260505153015 | 46 | 169 | 3.0 | 12.0 | 0.00 | 0.00 | 0.00 | 60 | 1002.9 |
| 20260505152512 | 46 | 138 | 5.0 | 9.0 | 0.00 | 0.00 | 0.00 | 60 | 1003.1 |
| 20260505152008 | 46 | 163 | 5.0 | 6.0 | 0.00 | 0.00 | 0.00 | 60 | 1003.0 |
| 20260505151503 | 46 | 174 | 1.0 | 11.0 | 0.00 | 0.00 | 0.00 | 60 | 1003.2 |
| 20260505151000 | 47 | 150 | 4.0 | 9.0 | 0.00 | 0.00 | 0.00 | 59 | 1003.0 |
| 20260505150457 | 47 | 114 | 4.0 | 15.0 | 0.00 | 0.00 | 0.00 | 59 | 1002.8 |
| 20260505140427 | 46 | 54 | 1.0 | 11.0 | 0.00 | 0.00 | 0.00 | 71 | 1002.8 |
| 20260505124840 | 42 | 195 | 3.0 | 5.0 | 0.00 | 0.00 | 0.00 | 86 | 1002.8 |
| 20260505124337 | 41 | 353 | 2.0 | 3.0 | 0.00 | 0.00 | 0.00 | 90 | 1002.8 |
| 20260505123833 | 42 | 190 | 4.0 | 4.0 | 0.00 | 0.00 | 0.00 | 85 | 1002.8 |
| 20260505123330 | 43 | 171 | 3.0 | 7.0 | 0.00 | 0.00 | 0.00 | 81 | 1002.7 |
| 20260505122826 | 43 | 90 | 3.0 | 5.0 | 0.00 | 0.00 | 0.00 | 84 | 1002.6 |
| 20260505122324 | 42 | 141 | 2.0 | 5.0 | 0.00 | 0.00 | 0.00 | 85 | 1002.5 |
| 20260505121820 | 42 | 66 | 1.0 | 5.0 | 0.00 | 0.00 | 0.00 | 87 | 1002.6 |
| 20260505121317 | 41 | 183 | 2.0 | 5.0 | 0.00 | 0.00 | 0.00 | 92 | 1002.5 |
| 20260505120813 | 41 | 150 | 4.0 | 5.0 | 0.00 | 0.00 | 0.00 | 92 | 1002.7 |
| 20260505120309 | 42 | 180 | 3.0 | 6.0 | 0.00 | 0.00 | 0.00 | 89 | 1002.8 |
| 20260505115808 | 45 | 152 | 6.0 | 7.0 | 0.00 | 0.00 | 0.00 | 75 | 1002.6 |
| 20260505115306 | 45 | 240 | 0.0 | 7.0 | 0.00 | 0.00 | 0.00 | 76 | 1002.6 |
| 20260505114803 | 45 | 70 | 2.0 | 8.0 | 0.00 | 0.00 | 0.00 | 76 | 1002.5 |
| 20260505114300 | 45 | 21 | 2.0 | 8.0 | 0.00 | 0.00 | 0.00 | 77 | 1002.6 |
| 20260505113756 | 44 | 41 | 2.0 | 6.0 | 0.00 | 0.00 | 0.00 | 78 | 1002.7 |
| 20260505113252 | 43 | 149 | 2.0 | 5.0 | 0.00 | 0.00 | 0.00 | 81 | 1002.7 |
| 20260505112748 | 42 | 300 | 1.0 | 2.0 | 0.00 | 0.00 | 0.00 | 88 | 1002.6 |
| 20260505112246 | 42 | 330 | 0.0 | 2.0 | 0.00 | 0.00 | 0.00 | 88 | 1002.4 |
| 20260505111746 | 42 | 180 | 0.0 | 1.0 | 0.00 | 0.00 | 0.00 | 88 | 1002.6 |
| 20260505111242 | 42 | 204 | 0.0 | 2.0 | 0.00 | 0.00 | 0.00 | 88 | 1002.6 |
| 20260505110738 | 42 | 90 | 2.0 | 6.0 | 0.00 | 0.00 | 0.00 | 87 | 1002.8 |
| 20260505110237 | 42 | 148 | 1.0 | 6.0 | 0.00 | 0.00 | 0.00 | 89 | 1002.8 |
| 20260505102212 | 41 | 251 | 1.0 | 6.0 | 0.00 | 0.00 | 0.00 | 96 | 1003.0 |
| 20260505101711 | 41 | 353 | 0.0 | 3.0 | 0.00 | 0.00 | 0.00 | 95 | 1002.7 |
| 20260505101206 | 41 | 30 | 2.0 | 3.0 | 0.00 | 0.00 | 0.00 | 94 | 1002.9 |
| 20260505100703 | 41 | 26 | 0.0 | 3.0 | 0.00 | 0.00 | 0.00 | 93 | 1002.6 |
| 20260505100200 | 42 | 5 | 1.0 | 3.0 | 0.00 | 0.00 | 0.00 | 92 | 1002.6 |
| 20260505095655 | 42 | 23 | 0.0 | 2.0 | 0.00 | 0.00 | 0.00 | 90 | 1002.5 |
| 20260505095153 | 42 | 178 | 3.0 | 4.0 | 0.00 | 0.00 | 0.00 | 92 | 1002.7 |
| 20260505094649 | 41 | 192 | 0.0 | 3.0 | 0.00 | 0.00 | 0.00 | 95 | 1002.5 |
| 20260505094145 | 41 | 346 | 0.0 | 3.0 | 0.00 | 0.00 | 0.00 | 96 | 1002.6 |
| 20260505093642 | 41 | 199 | 5.0 | 9.0 | 0.00 | 0.00 | 0.00 | 95 | 1003.1 |
| 20260505093139 | 41 | 154 | 3.0 | 4.0 | 0.00 | 0.00 | 0.00 | 95 | 1002.9 |
| 20260505092636 | 41 | 270 | 0.0 | 5.0 | 0.00 | 0.00 | 0.00 | 95 | 1002.7 |
| 20260505092135 | 41 | 232 | 0.0 | 4.0 | 0.00 | 0.00 | 0.00 | 95 | 1002.7 |
| 20260505091631 | 41 | 254 | 0.0 | 5.0 | 0.00 | 0.00 | 0.00 | 95 | 1002.8 |
| 20260505091129 | 41 | 180 | 3.0 | 3.0 | 0.00 | 0.00 | 0.00 | 94 | 1002.6 |
| 20260505090627 | 41 | 16 | 4.0 | 5.0 | 0.00 | 0.00 | 0.00 | 94 | 1002.5 |
| 20260505090125 | 41 | 106 | 0.0 | 4.0 | 0.00 | 0.00 | 0.00 | 94 | 1002.7 |
| 20260505085622 | 42 | 283 | 0.0 | 4.0 | 0.00 | 0.00 | 0.00 | 91 | 1002.5 |
| 20260505085120 | 44 | 306 | 1.0 | 5.0 | 0.00 | 0.00 | 0.00 | 86 | 1002.8 |
| 20260505084618 | 49 | 106 | 0.0 | 9.0 | 0.00 | 0.00 | 0.00 | 66 | 1002.5 |
| 20260505084116 | 48 | 149 | 6.0 | 8.0 | 0.00 | 0.00 | 0.00 | 67 | 1002.5 |
| 20260505083613 | 48 | 186 | 7.0 | 14.0 | 0.00 | 0.00 | 0.00 | 67 | 1002.5 |
| 20260505083109 | 49 | 186 | 5.0 | 11.0 | 0.00 | 0.00 | 0.00 | 68 | 1002.5 |
| 20260505082605 | 49 | 65 | 2.0 | 10.0 | 0.00 | 0.00 | 0.00 | 68 | 1002.5 |
| 20260505082103 | 49 | 178 | 3.0 | 12.0 | 0.00 | 0.00 | 0.00 | 68 | 1002.5 |
| 20260505081558 | 48 | 150 | 2.0 | 9.0 | 0.00 | 0.00 | 0.00 | 68 | 1002.3 |
| 20260505081056 | 49 | 156 | 7.0 | 17.0 | 0.00 | 0.00 | 0.00 | 68 | 1002.4 |
| 20260505080552 | 48 | 203 | 1.0 | 11.0 | 0.00 | 0.00 | 0.00 | 69 | 1002.7 |
| 20260505080049 | 48 | 106 | 5.0 | 10.0 | 0.00 | 0.00 | 0.00 | 69 | 1002.6 |
| 20260505075544 | 49 | 161 | 9.0 | 15.0 | 0.00 | 0.05 | 0.05 | 68 | 1002.7 |
| 20260505075042 | 49 | 96 | 5.0 | 16.0 | 0.00 | 0.05 | 0.05 | 67 | 1002.4 |
| 20260505074538 | 48 | 196 | 0.0 | 7.0 | 0.00 | 0.05 | 0.05 | 69 | 1002.6 |